FW7228 Weather Reports


time (UTC)temp
C
wind
direction
speed
KPH
gust
KPH
rain 1hr
cm
rain 24hr
cm
rain mn
cm
humidity
%
barometer
mb
20260506181504 12 304 9.7 20.9 0.00 0.18 0.00 44 1012.9
20260506180055 11 316 9.7 19.3 0.00 0.18 0.00 48 1012.8
20260506174512 10 288 11.3 19.3 0.00 0.18 0.00 49 1013.0
20260506173001 11 354 8.0 20.9 0.00 0.18 0.00 49 1013.0
20260506171504 10 297 8.0 17.7 0.00 0.18 0.00 50 1012.9
20260506170004 10 311 9.7 19.3 0.00 0.18 0.00 54 1012.9
20260506164501 9 307 8.0 14.5 0.00 0.18 0.00 55 1012.8
20260506163001 8 301 9.7 20.9 0.00 0.18 0.00 57 1012.7
20260506161503 8 304 11.3 24.1 0.00 0.18 0.00 57 1012.7
20260506160004 8 324 9.7 25.7 0.00 0.18 0.00 58 1012.5
20260506154501 7 274 11.3 19.3 0.00 0.18 0.00 61 1012.5
20260506153003 6 323 9.7 17.7 0.00 0.18 0.00 63 1012.5
20260506151502 6 240 8.0 17.7 0.00 0.18 0.00 67 1012.5
20260506144501 5 315 9.7 17.7 0.00 0.18 0.00 69 1012.7
20260506143001 5 290 8.0 22.5 0.00 0.18 0.00 71 1012.7
20260506140006 4 269 8.0 16.1 0.00 0.18 0.00 74 1012.5
20260506134501 3 291 11.3 20.9 0.00 0.18 0.00 73 1012.2
20260506133001 3 338 8.0 17.7 0.00 0.18 0.00 76 1012.3
20260506131502 3 300 9.7 17.7 0.00 0.18 0.00 76 1012.2
20260506124501 2 324 0.0 1.6 0.00 0.18 0.00 81 1012.5
20260506123001 1 356 1.6 8.0 0.00 0.18 0.00 86 1012.3
20260506120004 1 257 3.2 11.3 0.00 0.18 0.00 84 1011.4
20260506114501 2 249 3.2 8.0 0.00 0.18 0.00 83 1011.4
20260506113000 2 303 3.2 9.7 0.00 0.18 0.00 84 1011.5
20260506111502 2 320 3.2 12.9 0.00 0.18 0.00 85 1011.6
20260506104501 2 222 1.6 9.7 0.00 0.18 0.00 85 1011.5
20260506101502 2 262 1.6 8.0 0.00 0.18 0.00 84 1011.5
20260506100003 2 255 0.0 3.2 0.00 0.18 0.00 84 1011.5
20260506094500 3 320 0.0 6.4 0.00 0.18 0.00 83 1011.5
20260506093000 3 300 1.6 8.0 0.00 0.18 0.00 81 1011.4
20260506091502 3 297 1.6 8.0 0.00 0.18 0.00 76 1011.3
20260506090004 3 323 3.2 8.0 0.00 0.18 0.00 78 1011.1
20260506084500 4 304 6.4 16.1 0.00 0.18 0.00 73 1011.1
20260506081502 3 330 3.2 12.9 0.00 0.18 0.00 79 1011.4
20260506071504 4 15 1.6 8.0 0.00 0.18 0.00 83 1011.5
20260506044502 4 34 9.7 24.1 0.03 0.18 0.18 89 1011.2
20260506043002 4 349 6.4 19.3 0.15 0.18 0.18 91 1011.1
20260506041503 4 341 3.2 9.7 0.15 0.18 0.18 91 1011.3
20260506040006 4 320 6.4 16.1 0.13 0.15 0.15 90 1010.7
20260506033001 6 334 9.7 22.5 0.00 0.03 0.03 80 1010.6
20260506030005 6 1 9.7 19.3 0.00 0.03 0.03 76 1010.3
20260506023002 8 328 4.8 17.7 0.00 0.03 0.03 71 1009.7
20260506014504 8 292 0.0 4.8 0.00 0.03 0.03 67 1008.8
20260506013003 8 320 3.2 6.4 0.00 0.03 0.03 67 1008.3
20260506011502 9 326 11.3 25.7 0.00 0.03 0.03 64 1008.5
20260506010005 10 284 12.9 22.5 0.00 0.03 0.03 57 1008.7
20260506004503 10 290 8.0 16.1 0.00 0.03 0.03 56 1008.3
20260506003002 11 281 8.0 19.3 0.00 0.03 0.03 55 1008.3
20260506001501 11 271 8.0 17.7 0.00 0.03 0.03 54 1008.3
20260506000004 12 249 9.7 20.9 0.00 0.03 0.03 52 1008.2
20260505231502 13 315 8.0 17.7 0.00 0.03 0.03 52 1008.1
20260505230004 13 160 3.2 8.0 0.00 0.03 0.03 58 1008.2
20260505224500 11 307 6.4 12.9 0.00 0.03 0.03 64 1008.4
20260505223002 9 283 6.4 12.9 0.00 0.03 0.03 76 1008.8
20260505221500 9 292 16.1 35.4 0.00 0.03 0.03 69 1008.9
20260505220005 11 283 12.9 32.2 0.00 0.03 0.03 62 1008.9
20260505214502 13 320 9.7 25.7 0.00 0.03 0.03 56 1008.8
20260505213002 15 323 6.4 17.7 0.00 0.03 0.03 55 1009.0
20260505211501 12 327 3.2 9.7 0.00 0.03 0.03 60 1009.2
20260505210005 11 315 3.2 12.9 0.00 0.03 0.03 62 1009.1
20260505204501 11 194 4.8 16.1 0.00 0.03 0.03 63 1009.4
20260505201502 12 323 9.7 29.0 0.00 0.03 0.03 61 1009.6
20260505200004 12 266 11.3 20.9 0.03 0.03 0.03 62 1009.6
20260505194501 11 257 8.0 24.1 0.03 0.03 0.03 68 1009.7
20260505191502 9 295 4.8 14.5 0.03 0.03 0.03 87 1009.9
20260505184500 12 321 9.7 24.1 0.00 0.00 0.00 55 1009.9
20260505183001 13 226 9.7 20.9 0.00 0.00 0.00 55 1009.6